Location: Emblem
(62.4273°N, 6.4710°E)
Time: 07:40:43
(UTC+01:00)

Transit 4A - All Passes

Search period start: 06 February 2023 00:00
Search period end: 16 February 2023 00:00
Orbit: 870 x 973 km, 66.8° (Epoch: 05 February)

Date Brightness Start Highest point End Pass type
(mag) Time Alt. Az. Time Alt. Az. Time Alt. Az.
06 Feb - 00:25:17 10° WNW 00:31:13 85° NNE 00:37:15 10° ESE visible
06 Feb - 02:11:45 10° WNW 02:17:17 42° SW 02:22:55 10° SSE night (unlit)
06 Feb - 03:59:37 10° WNW 04:02:14 13° WSW 04:04:52 10° SW night (unlit)
06 Feb - 17:29:40 10° S 17:34:28 27° ESE 17:39:18 10° ENE visible
06 Feb - 19:14:18 10° SW 19:20:05 74° SE 19:25:59 10° ENE visible
06 Feb - 21:00:53 10° W 21:06:42 63° NNW 21:12:36 10° ENE visible
06 Feb - 22:47:54 10° WNW 22:53:44 60° NNE 22:59:39 10° E visible
07 Feb - 00:34:31 10° WNW 00:40:27 84° SW 00:46:30 10° SE visible
07 Feb - 02:21:04 10° WNW 02:26:18 33° WSW 02:31:38 10° S night (unlit)
07 Feb - 17:38:15 10° S 17:43:26 35° ESE 17:48:40 10° ENE visible
07 Feb - 19:23:27 10° SW 19:29:18 87° SE 19:35:14 10° ENE visible
07 Feb - 21:10:16 10° W 21:16:04 59° N 21:21:57 10° ENE visible
07 Feb - 22:57:14 10° WNW 23:03:05 64° NNE 23:09:03 10° E visible
08 Feb - 00:43:46 10° WNW 00:49:39 71° SW 00:55:40 10° SE visible
08 Feb - 02:30:27 10° WNW 02:35:16 27° WSW 02:40:12 10° S night (unlit)
08 Feb - 16:04:49 10° SE 16:07:31 13° ESE 16:10:12 10° ENE daylight
08 Feb - 17:47:00 10° SSW 17:52:27 43° SE 17:57:59 10° ENE visible
08 Feb - 19:32:42 10° WSW 19:38:33 82° NNW 19:44:30 10° ENE visible
08 Feb - 21:19:39 10° W 21:25:26 57° N 21:31:19 10° ENE visible
08 Feb - 23:06:31 10° WNW 23:12:25 70° NNE 23:18:26 10° ESE visible
09 Feb - 00:53:00 10° WNW 00:58:49 59° SW 01:04:44 10° SSE visible
09 Feb - 02:39:55 10° WNW 02:44:11 21° WSW 02:48:31 10° SSW night (unlit)
09 Feb - 16:12:33 10° SSE 16:16:19 18° ESE 16:20:06 10° ENE daylight
09 Feb - 17:55:53 10° SSW 18:01:32 54° SE 18:07:15 10° ENE visible
09 Feb - 19:42:00 10° WSW 19:47:50 73° NNW 19:53:48 10° ENE visible
09 Feb - 21:29:01 10° WNW 21:34:48 57° N 21:40:42 10° E visible
09 Feb - 23:15:47 10° WNW 23:21:43 78° NNE 23:27:46 10° ESE visible
10 Feb - 01:02:16 10° WNW 01:07:56 48° SW 01:13:42 10° SSE visible
10 Feb - 02:49:36 10° WNW 02:53:03 16° WSW 02:56:32 10° SW night (unlit)
10 Feb - 16:20:44 10° SSE 16:25:11 23° ESE 16:29:41 10° ENE daylight
10 Feb - 18:04:54 10° SW 18:10:40 66° SE 18:16:31 10° ENE visible
10 Feb - 19:51:20 10° WSW 19:57:09 66° NNW 20:03:06 10° ENE visible
10 Feb - 21:38:22 10° WNW 21:44:11 58° N 21:50:06 10° E visible
10 Feb - 23:25:03 10° WNW 23:30:59 88° NNE 23:37:03 10° ESE visible
11 Feb - 01:11:32 10° WNW 01:16:59 39° SW 01:22:32 10° S visible
11 Feb - 02:59:48 10° W 03:01:51 12° WSW 03:03:54 10° WSW night (unlit)
11 Feb - 16:29:11 10° S 16:34:08 30° ESE 16:39:07 10° ENE daylight
11 Feb - 18:14:01 10° SW 18:19:50 79° SE 18:25:46 10° ENE visible
11 Feb - 20:00:42 10° W 20:06:30 61° NNW 20:12:25 10° ENE visible
11 Feb - 21:47:42 10° WNW 21:53:33 61° NNE 21:59:30 10° E visible
11 Feb - 23:34:18 10° WNW 23:40:13 80° SW 23:46:17 10° SE visible
12 Feb - 01:20:52 10° WNW 01:26:00 31° WSW 01:31:13 10° S visible
12 Feb - 14:56:56 10° ESE 14:58:21 11° E 14:59:45 10° E daylight
12 Feb - 16:37:49 10° S 16:43:07 37° ESE 16:48:28 10° ENE daylight
12 Feb - 18:23:13 10° WSW 18:29:04 89° NW 18:35:02 10° ENE visible
12 Feb - 20:10:05 10° W 20:15:52 58° N 20:21:46 10° ENE visible
12 Feb - 21:57:01 10° WNW 22:02:53 66° NNE 22:08:54 10° E visible
12 Feb - 23:43:32 10° WNW 23:49:24 67° SW 23:55:25 10° SE visible
13 Feb - 01:30:16 10° WNW 01:34:57 25° WSW 01:39:42 10° SSW visible
13 Feb - 15:03:59 10° SE 15:07:07 15° ESE 15:10:16 10° ENE daylight
13 Feb - 16:46:38 10° SSW 16:52:10 47° SE 16:57:46 10° ENE daylight
13 Feb - 18:32:28 10° WSW 18:38:20 79° NNW 18:44:18 10° ENE visible
13 Feb - 20:19:27 10° W 20:25:14 57° N 20:31:08 10° ENE visible
13 Feb - 22:06:17 10° WNW 22:12:12 72° NNE 22:18:15 10° ESE visible
13 Feb - 23:52:46 10° WNW 23:58:33 55° SW 00:04:27 10° SSE visible
14 Feb - 01:39:48 10° WNW 01:43:51 19° WSW 01:47:57 10° SSW visible
14 Feb - 15:11:55 10° SSE 15:15:57 20° ESE 15:20:02 10° ENE daylight
14 Feb - 16:55:34 10° SSW 17:01:15 58° SE 17:07:02 10° ENE daylight
14 Feb - 18:41:47 10° WSW 18:47:38 70° NNW 18:53:35 10° ENE visible
14 Feb - 20:28:49 10° WNW 20:34:36 57° N 20:40:32 10° E visible
14 Feb - 22:15:34 10° WNW 22:21:30 81° NNE 22:27:34 10° ESE visible
15 Feb - 00:02:01 10° WNW 00:07:39 45° SW 00:13:22 10° SSE visible
15 Feb - 01:49:35 10° WNW 01:52:41 15° WSW 01:55:48 10° SW visible
15 Feb - 15:20:12 10° SSE 15:24:51 25° ESE 15:29:33 10° ENE daylight
15 Feb - 17:04:37 10° SW 17:10:24 70° SE 17:16:18 10° ENE daylight
15 Feb - 18:51:08 10° W 18:56:57 64° NNW 19:02:53 10° ENE visible
15 Feb - 20:38:10 10° WNW 20:43:59 59° N 20:49:56 10° E visible
15 Feb - 22:24:48 10° WNW 22:30:46 88° SSW 22:36:50 10° SE visible
